Regional Weather Roundup
Issued by NWS

Home | Current Version | Previous Version | Text Only | Print | Product List | Glossary Off
Versions: 1 2 3 4 5 6 7 8 9 10 11 12 13 14 15 16 17 18 19 20 21 22 23 24 25 26 27 28 29 30 31 32 33 34 35 36 37 38 39 40 41 42 43 44 45 46 47 48 49 50

000
ASUS44 KMEG 211100
RWRTN
TENNESSEE HOURLY STATE WEATHER ROUNDUP
NATIONAL WEATHER SERVICE MEMPHIS TN
600 AM CDT SAT APR 21 2018

TNZ002-004-019-021-049-052-054-088>092-211200-
WEST TENNESSEE

CITY           SKY/WX    TMP DP  RH WIND       PRES   REMARKS
MEMPHIS INTL   FAIR      49  34  56 E3        30.22S
NWS MEMPHIS      N/A     42 N/A N/A MISG        N/A
JACKSON        FAIR      48  32  53 E3        30.26R
DYERSBURG      FAIR      45  33  63 E3        30.27S
$$

TNZ008-025-027-028-033-062-065-066-211200-
NORTH MIDDLE TENNESSEE

CITY           SKY/WX    TMP DP  RH WIND       PRES   REMARKS
NASHVILLE      FAIR      40  33  76 CALM      30.31R
CLARKSVILLE    FAIR      43  30  60 E7        30.30S
SMYRNA         FAIR      38  34  85 SW3       30.32R
CROSSVILLE     FAIR      43  25  49 E3        30.33R
$$

TNZ061-075-076-078-094-096-097-211200-
SOUTH MIDDLE TENNESSEE

CITY           SKY/WX    TMP DP  RH WIND       PRES   REMARKS
$$

TNZ017-018-042-046-047-211200-
NORTHEAST TENNESSEE

CITY           SKY/WX    TMP DP  RH WIND       PRES   REMARKS
TRI CITIES     FAIR      34  28  79 N3        30.38R
$$

TNZ012-013-036-069-073-074-211200-
CENTRAL EAST TENNESSEE

CITY           SKY/WX    TMP DP  RH WIND       PRES   REMARKS
KNOXVILLE      FAIR      40  34  79 NE3       30.34R
OAK RIDGE      FAIR      40  35  83 NE3       30.36R
$$

TNZ083-085-099-211200-
SOUTHEAST TENNESSEE

CITY           SKY/WX    TMP DP  RH WIND       PRES   REMARKS
CHATTANOOGA    FAIR      40  37  89 CALM      30.34R
$$

SKY/WX REPORTED AS FAIR MEANS FEW OR NO CLOUDS BELOW
12 THOUSAND FEET.





USA.gov is the U.S. government's official web portal to all federal, state and local government web resources and services.